World > North America > United States > Texas > De Leon  

De Leon, TX Hourly Weather Updates

Feedback E-mail the Weather

Quick Clicks

De Leon, TX Weather Maps

°F °C°F °C
De Leon Weather Map
UTC Time: 5/29/2024, 02:22
Your Time:

De Leon, TX Regional Weather

Expires:202405290300;;057500
ASUS44 KFWD 290215
RWRTX 
NORTH TEXAS HOURLY WEATHER ROUNDUP
NATIONAL WEATHER SERVICE FORT WORTH TX
900 PM CDT TUE MAY 28 2024

NOTE: "FAIR" INDICATES FEW OR NO CLOUDS BELOW 12,000 FEET WITH NO
SIGNIFICANT WEATHER AND/OR OBSTRUCTIONS TO VISIBILITY.


TXZ083>090-098>101-113>116-127>130-139>142-154-155-290300-
WESTERN NORTH TEXAS
  
CITY           SKY/WX    TMP DP  RH WIND       PRES   REMARKS
WICHITA FALLS  TSTM      72  64  76 NW14G24   30.16R                  
WF-KICKAPOO    CLOUDY    74  62  64 NW7       30.13R                  
VERNON         FAIR      70  66  86 E16       30.07F                  
ABILENE        FAIR      80  62  54 SE14      29.99R                  
GRAHAM         MOCLDY    73  67  82 N3        30.02R                  
BRECKENRIDGE   MOCLDY    78  67  67 MISG      30.02R                  
CISCO          FAIR      77  64  65 E17G29    29.98F                  
EASTLAND       FAIR      76  64  67 E14G20    30.00S                  
RANGER         FAIR      75  37  24 SE9       30.02S                  
MINERAL WELLS    N/A    N/A N/A N/A MISG      30.01R                  
STEPHENVILLE   FAIR      75  64  67 SE7       30.07R                  
COMANCHE       FAIR      76  65  69 SE9       30.01F                  
BROWNWOOD      MOCLDY    77  64  65 E15       29.95F                  
COLEMAN        FAIR      77  61  56 MISG      29.95F                  
BRADY          CLOUDY    72  63  73 S20G32    29.98F                  
SAN SABA       FAIR      78  65  64 SE13      30.00F                  
$$


SKY/WX - Weather  TMP - Temperature  DP - Dew Point  RH - Humidity
WIND - Wind Direction/Speed PRES - Barometric Pressure VSB - Visibility
WCI - Wind Chill Index E13G22 Wind - East Wind 13 mph/Gusts of 22 mph

Trending Headlines

Trending Entertainment Headlines

De Leon Radar Loop

Use the map search tool if you want to place a location marker on the radar map...

De Leon Quick Facts

National Two Day Weather Forecast


E-mail the De Leon Weather Forecast

Voice your opinion or tell us about page issues...